GW7006 Weather Reports


time (UTC)temp
F
wind
direction
speed
knots
gust
knots
rain 1hr
in
rain 24hr
in
rain mn
in
humidity
%
barometer
mb
20260509074508 54 338 0.0 0.9 0.00 0.00 0.00 72 1024.2
20260509073004 55 338 0.0 0.0 0.00 0.00 0.00 72 1023.9
20260509071603 56 360 0.0 0.0 0.00 0.00 0.00 71 1023.8
20260509070101 57 359 0.0 0.0 0.00 0.00 0.00 71 1023.6
20260509064611 59 195 0.0 0.0 0.00 0.00 0.00 66 1023.5
20260509063047 63 193 0.0 0.0 0.00 0.00 0.00 59 1023.3
20260509061531 65 144 0.0 3.5 0.00 0.00 0.00 57 1023.4
20260509060018 64 143 0.0 4.3 0.00 0.00 0.00 58 1023.1
20260509054604 66 248 0.9 4.3 0.00 0.00 0.00 54 1023.0
20260509053049 66 207 0.0 3.5 0.00 0.00 0.00 55 1023.0
20260509051533 65 11 0.0 4.3 0.00 0.00 0.00 56 1023.0
20260509050020 64 224 1.7 4.3 0.00 0.00 0.00 57 1023.0
20260509044505 65 215 0.9 7.0 0.00 0.00 0.00 55 1022.9
20260509043036 65 163 0.9 5.2 0.00 0.00 0.00 55 1023.0
20260509041552 64 229 1.7 6.1 0.00 0.00 0.00 58 1023.0
20260509040021 64 184 1.7 5.2 0.00 0.00 0.00 57 1022.9
20260509034518 64 174 1.7 5.2 0.00 0.00 0.00 57 1023.1
20260509033014 63 210 1.7 6.1 0.00 0.00 0.00 59 1023.2
20260509031600 63 1 2.6 6.1 0.00 0.00 0.00 59 1023.3
20260509030047 64 340 0.9 5.2 0.00 0.00 0.00 57 1023.4
20260509024541 64 171 2.6 5.2 0.00 0.00 0.00 58 1023.6
20260509023043 63 32 0.0 4.3 0.00 0.00 0.00 61 1023.7
20260509021536 62 359 0.9 6.1 0.00 0.00 0.00 62 1023.9
20260509020042 63 219 1.7 4.3 0.00 0.00 0.00 60 1024.0
20260509014518 62 266 2.6 7.0 0.00 0.00 0.00 59 1024.3
20260509013006 62 122 0.0 5.2 0.00 0.00 0.00 61 1024.5
20260509011542 62 334 0.9 3.5 0.00 0.00 0.00 63 1024.6
20260509010042 61 318 0.0 4.3 0.00 0.00 0.00 63 1024.5
20260509004535 61 8 0.9 5.2 0.00 0.00 0.00 62 1024.6
20260509003030 61 32 0.9 3.5 0.00 0.00 0.00 63 1024.6
20260509001525 60 93 0.0 3.5 0.00 0.00 0.00 66 1024.8
20260509000021 58 41 0.9 2.6 0.00 0.00 0.00 68 1024.9
20260508234514 57 307 0.0 1.7 0.00 0.00 0.00 74 1025.0
20260508233011 55 49 0.0 1.7 0.00 0.00 0.00 75 1024.9
20260508231600 53 324 0.0 0.9 0.00 0.00 0.00 82 1024.8
20260508230048 51 335 0.0 0.0 0.00 0.00 0.00 88 1025.0
20260508224531 50 335 0.0 0.0 0.00 0.00 0.00 89 1024.9
20260508223021 48 335 0.0 0.0 0.00 0.00 0.00 92 1024.8
20260508221507 47 349 0.0 0.0 0.00 0.00 0.00 94 1024.6
20260508220055 45 349 0.0 0.0 0.00 0.00 0.00 94 1024.5
20260508214543 45 349 0.0 0.0 0.00 0.00 0.00 95 1024.2
20260508213040 44 349 0.0 0.0 0.00 0.00 0.00 94 1024.1
20260508211536 44 26 0.0 0.0 0.00 0.00 0.00 95 1023.9
20260508210020 43 26 0.0 0.0 0.00 0.00 0.00 95 1023.9
20260508204520 43 26 0.0 0.0 0.00 0.00 0.00 95 1023.7
20260508203015 42 26 0.0 0.0 0.00 0.00 0.00 95 1023.5
20260508201510 43 26 0.0 0.0 0.00 0.00 0.00 95 1023.3
20260508200004 43 26 0.0 0.0 0.00 0.00 0.00 95 1023.2
20260508194603 43 26 0.0 0.0 0.00 0.00 0.00 95 1023.0
20260508193105 43 26 0.0 0.0 0.00 0.00 0.00 95 1022.9
20260508191535 42 26 0.0 0.0 0.00 0.00 0.00 95 1022.7
20260508190026 43 26 0.0 0.0 0.00 0.00 0.00 95 1022.4
20260508184530 43 26 0.0 0.0 0.00 0.00 0.00 95 1022.3
20260508183030 43 26 0.0 0.0 0.00 0.00 0.00 95 1022.3
20260508181543 42 26 0.0 0.0 0.00 0.00 0.00 96 1022.4
20260508180033 42 26 0.0 0.0 0.00 0.00 0.00 94 1022.2
20260508174522 42 26 0.0 0.0 0.00 0.00 0.00 95 1022.0
20260508173020 42 26 0.0 0.0 0.00 0.00 0.00 95 1022.0
20260508171511 42 26 0.0 0.0 0.00 0.00 0.00 93 1022.0
20260508170006 42 26 0.0 0.0 0.00 0.00 0.00 93 1021.8
20260508164515 43 26 0.0 0.0 0.00 0.00 0.00 93 1021.9
20260508163016 43 26 0.0 0.0 0.00 0.00 0.00 94 1021.9
20260508161518 43 353 0.0 0.0 0.00 0.00 0.00 93 1021.7
20260508160011 43 353 0.0 0.0 0.00 0.00 0.00 92 1021.9
20260508154504 43 353 0.0 0.0 0.00 0.00 0.00 91 1021.9
20260508153002 43 353 0.0 0.0 0.00 0.00 0.00 91 1021.9
20260508151555 43 353 0.0 0.0 0.00 0.00 0.00 91 1021.8
20260508150052 43 353 0.0 0.0 0.00 0.00 0.00 91 1022.0
20260508144600 42 353 0.0 0.0 0.00 0.00 0.00 91 1022.1
20260508143040 43 353 0.0 0.0 0.00 0.00 0.00 91 1022.0
20260508141534 43 353 0.0 0.0 0.00 0.00 0.00 91 1021.9
20260508140021 43 353 0.0 0.0 0.00 0.00 0.00 91 1021.9
20260508134530 43 352 0.0 0.0 0.00 0.00 0.00 90 1021.6
20260508133043 43 353 0.0 0.0 0.00 0.00 0.00 90 1021.6
20260508131531 43 353 0.0 0.0 0.00 0.00 0.00 90 1021.5
20260508130030 43 353 0.0 0.0 0.00 0.00 0.00 89 1021.7
20260508124526 43 353 0.0 0.0 0.00 0.00 0.00 89 1021.8
20260508123031 43 353 0.0 0.0 0.00 0.00 0.00 88 1021.9
20260508121530 43 353 0.0 0.0 0.00 0.00 0.00 88 1021.7
20260508120021 43 353 0.0 0.0 0.00 0.00 0.00 87 1021.7
20260508114525 42 352 0.0 0.0 0.00 0.00 0.00 85 1021.6
20260508113021 43 353 0.0 0.0 0.00 0.00 0.00 85 1021.5
20260508111515 44 353 0.0 0.0 0.00 0.00 0.00 84 1021.3
20260508110019 44 353 0.0 0.0 0.00 0.00 0.00 84 1021.2
20260508104515 45 353 0.0 0.9 0.00 0.00 0.00 82 1021.3
20260508103018 45 353 0.0 0.0 0.00 0.00 0.00 83 1021.0
20260508101512 45 353 0.0 0.0 0.00 0.00 0.00 82 1021.0
20260508100017 46 353 0.0 0.0 0.00 0.00 0.00 81 1020.9
20260508094521 46 352 0.0 0.0 0.00 0.00 0.00 80 1020.5
20260508093017 47 353 0.0 0.0 0.00 0.00 0.00 79 1020.4
20260508091508 47 353 0.0 0.0 0.00 0.00 0.00 76 1020.3
20260508090116 48 354 0.0 0.9 0.00 0.00 0.00 75 1020.0
20260508084549 49 1 0.0 3.5 0.00 0.00 0.00 75 1019.6
20260508083038 50 13 0.0 0.9 0.00 0.00 0.00 73 1019.6
20260508081532 50 305 0.0 2.6 0.00 0.00 0.00 72 1019.5
20260508080014 51 339 0.0 1.7 0.00 0.00 0.00 70 1019.2